Torna al catalogo

FENGYUN 1C DEB

AttivoSSO
NORAD 30108·DEBRIS·🇨🇳 China

Lanciato May 10, 1999 da Taiyuan Satellite Launch Center

Loading…

Prossimi Passaggi (prossime 24 ore)

TLE

AggiornatoSource: Space-Track

Epoca: Sep 14, 2026, 11:14 UTC

1 30108U 99025RM  26257.46847161  .00000405  00000-0  18435-3 0  9999
2 30108  98.6864 241.9181 0195845 309.8989 203.0973 14.17521398 15033

Traccia FENGYUN 1C DEB in tempo reale con AllMySat

Download on the App Store